[[{"header":{"parameterUnit":"m.s-1","parameterCategory":1,"la1":30.2991,"la2":30.254,"lo1":-89.0895,"lo2":-89.0444,"dy":0.0017,"dx":0.0017,"nx":28,"ny":28,"refTime":"2023-10-30T09:00:00:Z","depth":0,"parameterNumber":2,"parameterNumberName":"U-component_of_WINDS"},"data":[0,0,0,0,0,0,0,0,0,0,0,0,0,0,0,0,0,0,0,0,0,0,0,0,0,0,0,0,0,0,0,0,0,0,0,0,0,0,0,0,0,0,0,0,0,0,0,0,0,0,0,0,0,0,0,0,0,0,-0.5231,-0.5232,0,-0.5299,-0.53,-0.5301,-0.5296,-0.5295,-0.5294,-0.5293,-0.5365,-0.5367,-0.537,0,0,0,0,0,0,0,0,0,0,0,0,0,-0.5098,-0.5101,-0.5231,-0.5232,-0.5233,-0.5299,-0.53,-0.5301,-0.5296,-0.5295,-0.5294,-0.5293,-0.5364,-0.5367,-0.537,0,0,0,0,0,0,0,0,0,0,0,0,0,-0.516,-0.5102,-0.5231,-0.5239,-0.524,-0.5299,-0.53,-0.5301,-0.5297,-0.5295,-0.5294,-0.5292,-0.5363,-0.5367,-0.5371,-0.5427,0,0,-0.5384,-0.5386,0,0,0,0,0,0,0,0,-0.5157,-0.5165,-0.5237,-0.5238,-0.524,-0.5288,-0.5279,-0.5344,-0.5297,-0.5275,-0.5293,-0.5291,-0.534,-0.5346,-0.5362,-0.5431,-0.5434,-0.5384,-0.5387,-0.5389,-0.539,0,0,0,0,0,0,0,-0.5152,-0.5162,-0.5258,-0.5238,-0.524,-0.5239,-0.5246,-0.5291,-0.5315,-0.5277,-0.5277,-0.5285,-0.5341,-0.5358,-0.5364,-0.5435,-0.5384,-0.5388,-0.5391,-0.5392,-0.5552,-0.5554,0,0,0,0,0,0,-0.5146,-0.5159,-0.5256,-0.526,-0.5194,-0.5242,-0.525,-0.5274,-0.5315,-0.532,-0.5286,-0.5284,-0.5352,-0.5359,-0.5367,-0.5435,-0.5389,-0.5393,-0.5395,-0.5551,-0.5553,-0.5554,0,0,0,0,0,0,-0.5143,-0.5155,-0.5253,-0.5209,-0.5222,-0.5246,-0.5273,-0.5276,-0.5293,-0.5322,-0.5326,-0.5299,-0.5351,-0.5361,-0.5412,-0.5438,-0.5395,-0.5399,-0.5549,-0.5551,-0.5553,-0.5573,0,0,0,0,0,0,-0.514,-0.5154,-0.5176,-0.521,-0.5224,-0.5298,-0.5274,-0.5278,-0.53,-0.5299,-0.5335,-0.534,-0.535,-0.5406,-0.5416,-0.5443,-0.5402,-0.5546,-0.555,-0.5553,-0.5571,-0.5576,-0.5581,0,0,0,0,0,-0.5135,-0.5179,-0.5177,-0.5189,-0.5252,-0.5299,-0.5307,-0.5318,-0.5303,-0.5325,-0.5343,-0.5339,-0.5433,-0.5411,-0.5423,-0.5451,-0.5545,-0.5549,-0.5552,-0.5568,-0.5575,-0.5581,0,0,0,0,0,0,-0.5149,-0.5184,-0.5182,-0.5238,-0.5265,-0.5298,-0.5327,-0.5325,-0.5358,-0.5355,-0.5367,-0.5375,-0.5427,-0.5444,-0.5419,-0.5508,-0.5487,-0.5493,-0.5495,-0.5502,-0.5507,-0.5502,-0.5405,0,0,0,0,0,-0.5158,-0.5193,-0.5222,-0.5269,-0.5283,-0.5302,-0.5323,-0.5329,-0.5358,-0.537,-0.5391,-0.542,-0.5456,-0.548,-0.5514,-0.5572,-0.558,-0.5598,-0.5603,-0.5607,-0.5613,-0.5644,-0.5652,-0.5567,-0.5567,-0.5567,0,0,-0.5178,-0.5202,-0.5223,-0.5272,-0.5294,-0.5331,-0.5312,-0.5351,-0.5379,-0.5376,-0.5426,-0.5442,-0.5475,-0.553,-0.5555,-0.5546,-0.5638,-0.5612,-0.5615,-0.5619,-0.5649,-0.5657,-0.5664,-0.5569,-0.5569,-0.5569,0,0,-0.5234,-0.5255,-0.5296,-0.5318,-0.5351,-0.5363,-0.5373,-0.5406,-0.5416,-0.5466,-0.5465,-0.5497,-0.5559,-0.5582,-0.5602,-0.5664,-0.5662,-0.5675,-0.5703,-0.5734,-0.5741,-0.5747,-0.5769,-0.5777,-0.568,-0.568,-0.568,0,-0.5255,-0.531,-0.5318,-0.5358,-0.5379,-0.5377,-0.5419,-0.544,-0.5482,-0.5497,-0.5486,-0.5562,-0.5584,-0.5644,-0.5659,-0.5675,-0.5687,-0.5672,-0.5739,-0.5745,-0.5751,-0.5772,-0.5781,-0.5682,-0.5681,-0.5681,-0.5681,0,-0.5334,-0.5372,-0.5401,-0.5441,-0.5466,-0.5507,-0.5522,-0.5546,-0.5548,-0.5562,-0.5612,-0.5638,-0.5677,-0.5692,-0.5695,-0.5752,-0.5745,-0.5736,-0.5716,-0.576,-0.5781,-0.5789,-0.5684,-0.5683,-0.5683,-0.5682,0,0,-0.5403,-0.5445,-0.5456,-0.5474,-0.5509,-0.5539,-0.5578,-0.5616,-0.5637,-0.5666,-0.57,-0.5751,-0.5742,-0.5765,-0.577,-0.5797,-0.5845,-0.5785,-0.5786,-0.5795,-0.5909,-0.5917,-0.5926,-0.5843,-0.5844,-0.5846,-0.5906,0,-0.5462,-0.5533,-0.5541,-0.5604,-0.5639,-0.5636,-0.5671,-0.5696,-0.5709,-0.5741,-0.5755,-0.5791,-0.5777,-0.579,-0.5816,-0.5834,-0.5868,-0.5829,-0.5875,-0.5877,-0.5868,-0.5937,-0.5945,-0.6001,-0.5915,-0.5916,-0.5917,0,-0.5542,-0.5572,-0.5638,-0.5668,-0.5683,-0.5714,-0.5748,-0.5778,-0.5807,-0.5814,-0.5838,-0.584,-0.5881,-0.5858,-0.5915,-0.5888,-0.5907,-0.5918,-0.5921,-0.5927,-0.5901,-0.5945,-0.602,-0.6028,-0.593,-0.5929,-0.5928,0,-0.5586,-0.5643,-0.569,-0.5705,-0.574,-0.5762,-0.5778,-0.5804,-0.5826,-0.5856,-0.5871,-0.5905,-0.5925,-0.5952,-0.5963,-0.5945,-0.6019,-0.5997,-0.6027,-0.6027,-0.6044,-0.6043,-0.6124,-0.6055,-0.6055,-0.6054,-0.6054,0,-0.5652,-0.5693,-0.571,-0.5739,-0.5784,-0.5793,-0.5837,-0.5852,-0.5876,-0.5907,-0.5907,-0.5937,-0.5949,-0.5981,-0.599,-0.6036,-0.6044,-0.6052,-0.6054,-0.6052,-0.6052,-0.6066,-0.6063,-0.6057,-0.6056,-0.6056,-0.6055,0,-0.571,-0.5722,-0.5773,-0.5802,-0.581,-0.5842,-0.5867,-0.5895,-0.5906,-0.5946,-0.5956,-0.5975,-0.6013,-0.6026,-0.6071,-0.6077,-0.613,-0.6129,-0.6121,-0.6122,-0.6151,-0.6149,-0.6245,-0.6258,-0.6179,-0.618,-0.6181,0,-0.5752,-0.5783,-0.5814,-0.5835,-0.5852,-0.5885,-0.5907,-0.5916,-0.5939,-0.5972,-0.5996,-0.6033,-0.6063,-0.6123,-0.6141,-0.6175,-0.6175,-0.6206,-0.618,-0.6178,-0.6176,-0.6175,-0.6178,-0.6212,-0.6212,-0.6213,-0.6214,0,-0.5826,-0.583,-0.5861,-0.5895,-0.592,-0.5947,-0.5973,-0.599,-0.6003,-0.6028,-0.6066,-0.6089,-0.6135,-0.6171,-0.6206,-0.6223,-0.6221,-0.6221,-0.623,-0.623,-0.6224,-0.6228,-0.6135,-0.6219,-0.6219,-0.6218,-0.6218,-0.6218,-0.5878,-0.5905,-0.5931,-0.5966,-0.5986,-0.6009,-0.6037,-0.6051,-0.6083,-0.612,-0.6123,-0.6164,-0.619,-0.6237,-0.6254,-0.6286,-0.6278,-0.629,-0.6294,-0.6297,-0.63,-0.6218,-0.6292,-0.6292,-0.6292,-0.6292,-0.6292,0,-0.5952,-0.5968,-0.6,-0.6035,-0.6062,-0.6056,-0.6084,-0.6107,-0.6143,-0.6167,-0.6196,-0.6239,-0.6274,-0.6294,-0.6329,-0.635,-0.635,-0.6359,-0.6358,-0.6362,-0.6305,-0.6294,-0.6359,-0.6359,-0.6359,-0.6359,-0.6359,-0.6359,-0.5994,-0.604,-0.6047,-0.6102,-0.6118,-0.6158,-0.6174,-0.6196,-0.6215,-0.6263,-0.6291,-0.6304,-0.6326,-0.6362,-0.6394,-0.6399,-0.6412,-0.6422,-0.6426,-0.6373,-0.6366,-0.636,-0.6349,-0.6425,-0.6425,-0.6481,-0.6481,-0.6481]},{"header":{"parameterUnit":"m.s-1","parameterCategory":1,"la1":30.2991,"la2":30.254,"lo1":-89.0895,"lo2":-89.0444,"dy":0.0017,"dx":0.0017,"nx":28,"ny":28,"refTime":"2023-10-30T09:00:00:Z","depth":0,"parameterNumber":3,"parameterNumberName":"V-component_of_WINDS"},"data":[0,0,0,0,0,0,0,0,0,0,0,0,0,0,0,0,0,0,0,0,0,0,0,0,0,0,0,0,0,0,0,0,0,0,0,0,0,0,0,0,0,0,0,0,0,0,0,0,0,0,0,0,0,0,0,0,0,0,-7.7232,-7.7233,0,-7.7333,-7.7335,-7.7336,-7.7258,-7.7255,-7.7251,-7.7248,-7.7346,-7.7351,-7.7357,0,0,0,0,0,0,0,0,0,0,0,0,0,-7.6965,-7.697,-7.7232,-7.7233,-7.7234,-7.7333,-7.7335,-7.7336,-7.7259,-7.7254,-7.725,-7.7247,-7.7344,-7.7351,-7.7357,0,0,0,0,0,0,0,0,0,0,0,0,0,-7.7075,-7.6972,-7.7231,-7.7208,-7.7207,-7.7333,-7.7335,-7.7336,-7.7259,-7.7254,-7.7249,-7.7245,-7.7342,-7.735,-7.7358,-7.7512,0,0,-7.7385,-7.7388,0,0,0,0,0,0,0,0,-7.7069,-7.7085,-7.721,-7.721,-7.7209,-7.7278,-7.7276,-7.7395,-7.7261,-7.7239,-7.7248,-7.7242,-7.7327,-7.7336,-7.7366,-7.7516,-7.752,-7.7385,-7.7391,-7.7394,-7.7397,0,0,0,0,0,0,0,-7.7061,-7.708,-7.7272,-7.7212,-7.7211,-7.719,-7.72,-7.7298,-7.731,-7.7241,-7.7235,-7.7249,-7.7325,-7.7358,-7.7368,-7.7522,-7.7385,-7.7393,-7.7398,-7.7401,-7.7803,-7.7808,0,0,0,0,0,0,-7.7057,-7.7074,-7.7268,-7.7275,-7.7125,-7.7199,-7.721,-7.7261,-7.7308,-7.7311,-7.7253,-7.7245,-7.7346,-7.7358,-7.7371,-7.7554,-7.7394,-7.7402,-7.7407,-7.7798,-7.7804,-7.781,0,0,0,0,0,0,-7.7051,-7.7075,-7.7264,-7.7173,-7.7196,-7.7209,-7.7266,-7.7265,-7.7298,-7.7318,-7.7319,-7.7285,-7.7342,-7.7359,-7.7478,-7.7556,-7.7406,-7.7414,-7.7791,-7.78,-7.7807,-7.7921,0,0,0,0,0,0,-7.7044,-7.7073,-7.7133,-7.7175,-7.7201,-7.7372,-7.7271,-7.7271,-7.7314,-7.7304,-7.7348,-7.735,-7.734,-7.7466,-7.7486,-7.7565,-7.7421,-7.7784,-7.7795,-7.7805,-7.7911,-7.7933,-7.7951,0,0,0,0,0,-7.7035,-7.7159,-7.7136,-7.716,-7.7276,-7.7376,-7.7391,-7.7378,-7.732,-7.738,-7.7393,-7.7349,-7.7545,-7.7478,-7.7501,-7.7584,-7.7779,-7.7792,-7.7804,-7.7902,-7.7928,-7.7951,0,0,0,0,0,0,-7.7123,-7.7164,-7.7139,-7.7282,-7.7327,-7.7363,-7.7437,-7.7407,-7.7467,-7.7455,-7.7435,-7.7445,-7.7571,-7.7589,-7.7514,-7.7735,-7.7652,-7.767,-7.7719,-7.7744,-7.7764,-7.7757,-7.7428,0,0,0,0,0,-7.716,-7.724,-7.7271,-7.7393,-7.7418,-7.7424,-7.7467,-7.7454,-7.7498,-7.7516,-7.7537,-7.7581,-7.7652,-7.7699,-7.7765,-7.7913,-7.7921,-7.7981,-7.8001,-7.8018,-7.8033,-7.8113,-7.814,-7.7851,-7.7851,-7.7851,0,0,-7.7236,-7.7268,-7.7319,-7.7412,-7.7445,-7.7527,-7.744,-7.753,-7.759,-7.7529,-7.7643,-7.7661,-7.7707,-7.7842,-7.7902,-7.7861,-7.8115,-7.8034,-7.8047,-7.8053,-7.8129,-7.8156,-7.818,-7.786,-7.7858,-7.7857,0,0,-7.7415,-7.7448,-7.7555,-7.759,-7.7643,-7.7646,-7.7672,-7.7714,-7.7724,-7.7839,-7.7795,-7.7865,-7.7988,-7.8023,-7.8057,-7.8252,-7.8214,-7.8274,-7.838,-7.8458,-7.8481,-7.8501,-7.8571,-7.8596,-7.8289,-7.829,-7.829,0,-7.7502,-7.7626,-7.7613,-7.7707,-7.7749,-7.77,-7.7807,-7.7841,-7.7911,-7.7941,-7.7894,-7.8049,-7.8076,-7.8219,-7.8267,-7.8296,-7.8323,-7.8269,-7.8479,-7.8499,-7.8518,-7.8584,-7.861,-7.8297,-7.8296,-7.8295,-7.8295,0,-7.773,-7.7817,-7.7896,-7.7969,-7.8019,-7.8119,-7.8119,-7.8172,-7.8154,-7.8163,-7.828,-7.8312,-7.8385,-7.8417,-7.84,-7.8558,-7.8531,-7.8482,-7.8399,-7.8553,-7.8615,-7.864,-7.8307,-7.8304,-7.8302,-7.83,0,0,-7.7968,-7.8033,-7.8063,-7.8095,-7.815,-7.8215,-7.8313,-7.8386,-7.8432,-7.8482,-7.8562,-7.8668,-7.8625,-7.8663,-7.8649,-7.8718,-7.8871,-7.8661,-7.8662,-7.8699,-7.9046,-7.9083,-7.9113,-7.8846,-7.8851,-7.8855,-7.9043,0,-7.8151,-7.8323,-7.8315,-7.8475,-7.8555,-7.851,-7.8595,-7.8637,-7.8647,-7.8714,-7.8724,-7.88,-7.8737,-7.876,-7.8826,-7.8839,-7.894,-7.8825,-7.892,-7.8923,-7.891,-7.9145,-7.9183,-7.9359,-7.9067,-7.9071,-7.9074,0,-7.8387,-7.8449,-7.8619,-7.8663,-7.8695,-7.8772,-7.8839,-7.8905,-7.895,-7.8953,-7.8998,-7.8973,-7.907,-7.8984,-7.9117,-7.9039,-7.9077,-7.9089,-7.9095,-7.9103,-7.9008,-7.9159,-7.9415,-7.9441,-7.9112,-7.9109,-7.9106,0,-7.8544,-7.8669,-7.8787,-7.8816,-7.887,-7.8925,-7.895,-7.8991,-7.9036,-7.9094,-7.9123,-7.919,-7.9227,-7.9279,-7.9273,-7.9211,-7.9408,-7.9322,-7.9412,-7.9412,-7.9455,-7.9453,-7.972,-7.948,-7.9479,-7.9479,-7.9478,0,-7.875,-7.8855,-7.8859,-7.8931,-7.9048,-7.9036,-7.9151,-7.917,-7.9207,-7.9281,-7.9245,-7.9315,-7.9302,-7.9372,-7.9367,-7.9477,-7.9494,-7.9498,-7.9495,-7.9502,-7.9501,-7.9526,-7.9514,-7.9486,-7.9484,-7.9483,-7.9482,0,-7.8945,-7.8951,-7.9077,-7.9119,-7.9132,-7.9216,-7.9251,-7.9319,-7.9327,-7.9421,-7.9442,-7.9454,-7.9534,-7.9533,-7.9623,-7.9619,-7.9755,-7.9739,-7.9741,-7.9738,-7.9828,-7.982,-8.0121,-8.016,-7.9894,-7.9897,-7.9899,0,-7.9075,-7.9156,-7.9208,-7.9256,-7.9285,-7.9363,-7.941,-7.9401,-7.945,-7.951,-7.9571,-7.9648,-7.9709,-7.9838,-7.9853,-7.9922,-7.9907,-8.0008,-7.9916,-7.992,-7.9908,-7.9904,-7.9912,-8.0025,-8.0028,-8.0031,-8.0033,0,-7.9307,-7.9307,-7.9377,-7.9449,-7.9506,-7.9562,-7.9612,-7.9653,-7.965,-7.9708,-7.979,-7.9838,-7.9932,-8.0008,-8.0075,-8.0097,-8.0065,-8.0062,-8.0086,-8.0093,-8.0092,-8.0094,-7.979,-8.0055,-8.0052,-8.0051,-8.005,-8.0049,-7.9474,-7.9544,-7.9592,-7.9671,-7.9709,-7.9758,-7.9825,-7.9842,-7.9912,-7.9989,-7.9979,-8.0071,-8.0115,-8.0201,-8.023,-8.0301,-8.0265,-8.0301,-8.031,-8.0319,-8.0329,-8.0081,-8.0313,-8.0312,-8.0311,-8.0311,-8.0311,0,-7.9703,-7.9733,-7.9806,-7.988,-7.9943,-7.9909,-7.9964,-8.0018,-8.01,-8.0145,-8.0207,-8.0302,-8.0376,-8.0398,-8.047,-8.0522,-8.0509,-8.0541,-8.0537,-8.0543,-8.0357,-8.0329,-8.0551,-8.0551,-8.0551,-8.0551,-8.0551,-8.0551,-7.9831,-7.9948,-7.9954,-8.0089,-8.0116,-8.0209,-8.0243,-8.0288,-8.0324,-8.0433,-8.0495,-8.051,-8.0545,-8.062,-8.0686,-8.069,-8.0718,-8.0757,-8.0755,-8.058,-8.0556,-8.0533,-8.0507,-8.0763,-8.0763,-8.0936,-8.0937,-8.0939]}]]